Home > Weather > Rivera > Past weeks

Flag for Uruguay Weather for the Past 2 Weeks in Rivera, Uruguay

Now
48 °F

Clear.


Feels Like: 48 °F
Forecast: 37 / 56 °F
Wind: 2 mph from South

Location: Paso De Los Libres Aerodrome

Current Time: Apr 29, 2016 at 1:15:37 AM

Latest Report: Apr 29, 2016 at 12:00 AM


Visibility: 10 mi

Pressure: 30.21 "Hg

Humidity: 87%

Dew Point: 45 °F

Location of RiveraLocation

Historic Weather in Rivera — Graph

°F

Rivera Temperature Yesterday

Maximum temperature yesterday: 61 °F (at 2:00 PM)
Minimum temperature yesterday: 43 °F (at 8:00 AM)
Average temperature yesterday: 53 °F

High & Low Weather Summary for the Past Weeks

 TemperatureHumidityPressure
High93 °F (Apr 16, 2:00 PM)100% (Apr 13, 11:00 PM)30.30 "Hg (Apr 13, 11:00 PM)
Low43 °F (Apr 27, 6:00 AM)48% (Apr 27, 2:00 PM)29.53 "Hg (Apr 24, 4:00 AM)
Average69 °F85%29.87 "Hg
* Reported Apr 13 11:00 PM — Apr 28 11:00 PM, Rivera, Weather by CustomWeather, © 2016

Note: Actual official high and low records may vary slightly from our data, if they occured in-between our weather recording intervals... More about our weather records

Advertising

Rivera Weather History for the Previous 24 Hours

Scroll right to see more
 ConditionsComfort  
Time TempWeatherWind HumidityBarometerVisibility
11:00 PM
Thu, Apr 28
52 °FClear.No wind82%30.21 "Hg10 mi
10:00 PM50 °FClear.2 mph94%30.21 "Hg10 mi
9:00 PM50 °FPassing clouds.No wind88%30.21 "HgN/A
8:00 PM54 °FPartly cloudy.No wind77%30.21 "HgN/A
7:00 PM55 °FPartly cloudy.No wind72%30.21 "HgN/A
6:00 PM57 °FPassing clouds.5 mph59%30.21 "HgN/A
5:00 PM59 °FPartly sunny.5 mph51%30.21 "HgN/A
4:00 PM59 °FPartly sunny.6 mph51%30.21 "Hg6 mi
3:00 PM61 °FPartly sunny.7 mph48%30.21 "HgN/A
2:00 PM61 °FPartly sunny.5 mph48%30.24 "HgN/A
1:00 PM59 °FPartly sunny.6 mph51%30.27 "HgN/A
12:00 PM57 °FPartly sunny.6 mph55%30.30 "HgN/A
11:00 AM57 °FBroken clouds.6 mph59%30.30 "HgN/A
10:00 AM55 °FScattered clouds.6 mph67%30.27 "HgN/A
9:00 AM48 °FPassing clouds.No wind94%30.27 "HgN/A
8:00 AM43 °FScattered clouds.No wind93%30.27 "Hg4 mi
6:00 AM45 °FClear.6 mph93%30.24 "Hg10 mi
5:00 AM45 °FClear.3 mph93%30.24 "Hg10 mi
4:00 AM45 °FPassing clouds.3 mph93%30.24 "HgN/A
2:00 AM48 °FPassing clouds.3 mph87%30.24 "HgN/A
1:00 AM50 °FPassing clouds.3 mph82%30.24 "HgN/A
Weather by CustomWeather, © 2016

See weather overviewHow to use our weather pages